Zurück zum Katalog

STARLINK-5989

AktivKommunikationVLEO
NORAD 56781·PAYLOAD·🇺🇸 United States

Gestartet May 31, 2023 von Vandenberg Space Force Base

Loading…

Nächste Überflüge (nächste 24 Stunden)

TLE

AktuellSource: CelesTrak SupGP

Epoche: Sep 15, 2026, 01:29 UTC

1 56781C 23078Q   26258.06229167 -.00044735  00000+0 -37484-2 0  2583
2 56781  70.0016 227.0510 0003558 266.0787 126.5655 14.98358289    15

Verfolge STARLINK-5989 in Echtzeit mit AllMySat

Download on the App Store